Dublin, Ireland

8:55 AM IST on May 27, 2017 (GMT +0100)
Dublin International

Weather History for EIDW - January, 2012

Change the Weather History Date:

Thursday, January 5, 2012

  Actual Average Record
Temperature  
Mean Temperature 44 °F -  
Max Temperature 47 °F 46 °F 55 °F (1999)
Min Temperature 39 °F 36 °F 24 °F (2003)
Degree Days  
Heating Degree Days 21    
Moisture  
Dew Point 40 °F    
Average Humidity 82    
Maximum Humidity 94    
Minimum Humidity 64    
Precipitation  
Precipitation 0.03 in 0.09 in - ()
Sea Level Pressure  
Sea Level Pressure 29.79 in    
Wind  
Wind Speed 27 mph ()    
Max Wind Speed 39 mph    
Max Gust Speed 53 mph    
Visibility 6.5 miles    
Events Rain    
Averages and records for this station are not official NWS values.
T = Trace of Precipitation, MM = Missing Value Source: Averaged Metar Reports

Daily Weather History Graph

Daily Weather History Graph

Search for Another Location

Airport or City:

Trip Planner

Search our weather history database for the weather conditions in past years. The results will help you decide how hot, cold, wet, or windy it might be!

Date:

Astronomy

Jan. 05, 2012 Rise Set
Actual Time 8:39 AM GMT 4:20 PM GMT
Civil Twilight 7:57 AM GMT 5:02 PM GMT
Nautical Twilight 7:12 AM GMT 5:47 PM GMT
Astronomical Twilight 6:30 AM GMT 6:30 PM GMT
Moon 1:14 PM GMT (1/5) 5:10 AM GMT (1/5)
Length of Visible Light 9h 05m
Length of Day
7h 40m
Waxing Gibbous, 86% of the Moon is Illuminated
Jan 5
Waxing Gibbous
Jan 9
Full
Jan 16
Last Quarter
Jan 23
New
Jan 31
First Quarter

Hourly Weather History & Observations

Time (GMT) Temp. Windchill Dew Point Humidity Pressure Visibility Wind Dir Wind Speed Gust Speed Precip Events Conditions
12:00 AM 49 °F - 48 °F 93% 29.51 in 6 mi West 35.8 mph - - Rain Rain
12:00 AM 50.0 °F - 48.2 °F 94% 29.50 in 6.2 mi West 39.1 mph 52.9 mph N/A Rain Rain
12:30 AM 50.0 °F - 48.2 °F 94% 29.50 in 6.2 mi West 32.2 mph 46.0 mph N/A Rain Light Rain
1:00 AM 50.0 °F - 46.4 °F 87% 29.50 in 6.2 mi West 35.7 mph 50.6 mph N/A Rain Light Rain
1:30 AM 50.0 °F - 46.4 °F 87% 29.47 in 6.2 mi West 38.0 mph 51.8 mph N/A   Mostly Cloudy
2:00 AM 50.0 °F - 44.6 °F 82% 29.47 in 6.2 mi West 38.0 mph 49.5 mph N/A   Mostly Cloudy
2:30 AM 50.0 °F - 42.8 °F 76% 29.47 in 6.2 mi West 33.4 mph 49.5 mph N/A   Mostly Cloudy
3:00 AM 50.0 °F - 42.8 °F 76% 29.47 in 6.2 mi West 34.5 mph 48.3 mph N/A   Mostly Cloudy
3:30 AM 48.2 °F - 42.8 °F 82% 29.50 in 6.2 mi West 36.8 mph 52.9 mph N/A   Mostly Cloudy
4:00 AM 48.2 °F - 41.0 °F 76% 29.50 in 6.2 mi West 35.7 mph 49.5 mph N/A   Mostly Cloudy
4:30 AM 46.4 °F 37.9 °F 42.8 °F 87% 29.50 in 6.2 mi West 25.3 mph 38.0 mph N/A   Mostly Cloudy
5:00 AM 46.4 °F 37.7 °F 39.2 °F 76% 29.53 in 6.2 mi West 26.5 mph 40.3 mph N/A   Scattered Clouds
5:30 AM 46.4 °F 36.7 °F 37.4 °F 71% 29.53 in 6.2 mi West 33.4 mph 44.9 mph N/A   Mostly Cloudy
6:00 AM 46 °F - 38 °F 64% 29.57 in 12 mi West 33.6 mph - -   Partly Cloudy
6:00 AM 46.4 °F 36.5 °F 37.4 °F 71% 29.56 in 6.2 mi West 34.5 mph 47.2 mph N/A   Mostly Cloudy
6:30 AM 44.6 °F 34.9 °F 39.2 °F 81% 29.56 in 6.2 mi West 28.8 mph 40.3 mph N/A Rain Light Rain Showers
7:00 AM 44.6 °F 35.5 °F 39.2 °F 81% 29.59 in 6.2 mi West 25.3 mph 41.4 mph N/A   Mostly Cloudy
7:30 AM 44.6 °F 35.3 °F 37.4 °F 76% 29.59 in 6.2 mi West 26.5 mph 44.9 mph N/A   Mostly Cloudy
8:00 AM 44.6 °F 34.1 °F 37.4 °F 76% 29.59 in 6.2 mi West 34.5 mph 50.6 mph N/A   Mostly Cloudy
8:30 AM 44.6 °F 34.6 °F 37.4 °F 76% 29.62 in 6.2 mi West 31.1 mph 48.3 mph N/A   Mostly Cloudy
9:00 AM 44.6 °F 34.4 °F 37.4 °F 76% 29.65 in 6.2 mi West 32.2 mph 46.0 mph N/A Rain Light Rain Showers
9:30 AM 44.6 °F 34.4 °F 39.2 °F 81% 29.68 in 4.3 mi West 32.2 mph 46.0 mph N/A Rain Light Rain Showers
10:00 AM 44.6 °F 34.2 °F 39.2 °F 81% 29.71 in 5.0 mi WNW 33.4 mph 49.5 mph N/A Rain Light Rain Showers
10:30 AM 46.4 °F 37.7 °F 39.2 °F 76% 29.74 in 6.2 mi West 26.5 mph - N/A   Mostly Cloudy
11:00 AM 44.6 °F 35.1 °F 41.0 °F 87% 29.77 in 6.2 mi West 27.6 mph 41.4 mph N/A   Mostly Cloudy
11:30 AM 46.4 °F 37.9 °F 41.0 °F 81% 29.80 in 6.2 mi West 25.3 mph - N/A   Mostly Cloudy
12:00 PM 46 °F - 40 °F 74% 29.83 in 11 mi WNW 26.8 mph - - Rain Light Rain Showers
12:00 PM 46.4 °F 37.5 °F 41.0 °F 81% 29.80 in 6.2 mi WNW 27.6 mph 40.3 mph N/A   Scattered Clouds
12:30 PM 46.4 °F 37.9 °F 41.0 °F 81% 29.83 in 6.2 mi West 25.3 mph 38.0 mph N/A   Scattered Clouds
1:00 PM 46.4 °F 37.5 °F 41.0 °F 81% 29.86 in 6.2 mi West 27.6 mph - N/A   Scattered Clouds
1:30 PM 46.4 °F 38.1 °F 41.0 °F 81% 29.86 in 6.2 mi WNW 24.2 mph - N/A   Scattered Clouds
2:14 PM 46.4 °F 38.3 °F 41.0 °F 81% 29.89 in 6.2 mi West 23.0 mph - N/A   Mostly Cloudy
2:30 PM 46.4 °F 38.1 °F 41.0 °F 81% 29.89 in 6.2 mi West 24.2 mph - N/A   Mostly Cloudy
3:00 PM 46.4 °F 38.1 °F 41.0 °F 81% 29.92 in 6.2 mi WNW 24.2 mph - N/A   Scattered Clouds
3:30 PM 46.4 °F 38.5 °F 39.2 °F 76% 29.95 in 6.2 mi WNW 21.9 mph - N/A   Scattered Clouds
4:00 PM 44.6 °F 37.2 °F 39.2 °F 81% 29.98 in 6.2 mi West 17.3 mph - N/A   Scattered Clouds
4:30 PM 44.6 °F 37.2 °F 39.2 °F 81% 30.01 in 6.2 mi West 17.3 mph - N/A   Partly Cloudy
5:00 PM 44.6 °F 37.2 °F 37.4 °F 76% 30.01 in 6.2 mi West 17.3 mph - N/A   Partly Cloudy
5:30 PM 42.8 °F 35.4 °F 37.4 °F 81% 30.04 in 6.2 mi West 15.0 mph - N/A   Partly Cloudy
6:00 PM 43 °F - 37 °F 74% 30.08 in 12 mi West 15.7 mph - -   Partly Cloudy
6:00 PM 42.8 °F 35.1 °F 37.4 °F 81% 30.06 in 6.2 mi West 16.1 mph - N/A   Partly Cloudy
7:00 PM 42.8 °F 34.8 °F 39.2 °F 87% 30.09 in 6.2 mi West 17.3 mph - N/A   Partly Cloudy
7:30 PM 42.8 °F 34.8 °F 39.2 °F 87% 30.09 in 6.2 mi West 17.3 mph - N/A   Partly Cloudy
8:00 PM 42.8 °F 35.8 °F 39.2 °F 87% 30.12 in 6.2 mi West 13.8 mph - N/A   Scattered Clouds
8:30 PM 42.8 °F 36.2 °F 39.2 °F 87% 30.15 in 6.2 mi West 12.7 mph - N/A Rain Light Rain Showers
9:00 PM 42.8 °F 35.4 °F 39.2 °F 87% 30.15 in 6.2 mi West 15.0 mph - N/A   Scattered Clouds
9:30 PM 41.0 °F 33.9 °F 39.2 °F 93% 30.18 in 6.2 mi West 12.7 mph - N/A   Scattered Clouds
10:00 PM 41.0 °F 33.1 °F 39.2 °F 93% 30.18 in 6.2 mi West 15.0 mph - N/A   Scattered Clouds
10:30 PM 41.0 °F 33.5 °F 39.2 °F 93% 30.18 in 6.2 mi West 13.8 mph - N/A   Scattered Clouds
11:00 PM 41.0 °F 33.9 °F 39.2 °F 93% 30.21 in 6.2 mi West 12.7 mph - N/A   Scattered Clouds
11:30 PM 39.2 °F 32.0 °F 37.4 °F 93% 30.21 in 6.2 mi West 11.5 mph - N/A   Partly Cloudy